DECAYED

CZ-6A DEB, 60832 (Decayed)

Orbit data source: Space-Track

CZ-6A DEB, 60832 was space debris in LEO originally from a launch on Tue, 06 Aug 2024 UTC launched from the Taiyaun Space Center, China (TSC). Debris objects in space refer to the collection of defunct objects orbiting the Earth. Examples of debris include non-operational satellites, rocket bodies, and fragments generated from explosions, collisions, or faulty payload assembly.

Not visible in the next 10 days
Identifier
60832, 2024-140HK
Orbit
Decayed
Country
Flag of CNCN / PRC
Related business
Manufacturer
SAST
Mission
Decayed spacecraft
Bus & Motor
Unknown
Mass
Unknown
Launch date (UTC)
2024-08-06 (2 years ago)
Launch vehicle
Unknown
Launch site
Taiyaun Space Center, China (TSC)
Object type
Payload
Rocket body
Debris
Shape & HBR
Unknown shape, 0.1 m
Radar Cross Section
Medium (>0.1 m² and <1 m²)

Expand to show TLE details & history
Last TLE update: 7 months ago

TLE from 7 months ago
0 CZ-6A DEB
1 60832U 24140HK  25317.85436303  .19110420 -99077-6  51628-2 0  9991
2 60832  89.5036 326.0405 0016075 204.6786 155.3751 16.27908850 67718
Epoch: 2025-11-13T20:30Z
TLE epoch observation values (Epoch: 2025-11-13T20:30:16.965Z)
Latitude
-0.00002°
Longitude
-34.73643°
Altitude
211.127 km
Speed
7.774 km/s
True Right ascension
21h 44m 09s
True Declination
0° 00' 00"
Sunlit
Object was in daylight at epoch
Visualization orbit readout
Latitude
Unknown
Longitude
Unknown
Altitude
Unknown
Speed
Unknown
Apparent Right ascension
Unknown
Apparent Declination
Unknown
Sunlit
N/A
Visualization observer readout
Local Sidereal Time
07:20:37
Azimuth
Unknown
Elevation
Unknown
Doppler factor
Unknown
Orbital elements
Apogee altitude
205.389 km
Perigee altitude
184.257 km
Semi-major axis
6,572.96 km
Eccentricity
0.00161
Inclination
89.5036°
RAAN
326.0405°
Arg. of periapsis
204.6786°
True anomaly
155.45171°
Mean anomaly
155.3751°
Eccentric anomaly
155.41342°
Mean motion
4.07288 °/min
Orbital period
88.39 mins
BSTAR
0.0051628
Loading maneuver chart data...
Computing Atmospheric mass density...
Loading historical data...
Loading historical data...
Loading historical data...
Loading historical data...
Loading historical data...
Loading historical data...
Loading historical data...

Documentation

Showing up to 5 results
|